TimeEST,TemperatureF,Dew PointF,Humidity,Sea Level PressureIn,VisibilityMPH,Wind Direction,Wind SpeedMPH,Gust SpeedMPH,PrecipitationIn,Events,Conditions,WindDirDegrees,DateUTC
12:15 AM,12.0,9.1,88,29.74,4.0,Calm,Calm,-,N/A,Snow,Light Snow,0,2013-02-04 05:15:00
12:35 AM,12.0,9.1,88,29.74,5.0,Calm,Calm,-,N/A,,Overcast,0,2013-02-04 05:35:00
12:55 AM,12.0,9.1,88,29.74,3.0,Calm,Calm,-,N/A,Snow,Light Snow,0,2013-02-04 05:55:00
1:15 AM,12.0,9.1,88,29.74,3.0,Calm,Calm,-,N/A,Snow,Light Snow,0,2013-02-04 06:15:00
1:35 AM,12.0,9.1,88,29.74,5.0,Calm,Calm,-,N/A,,Overcast,0,2013-02-04 06:35:00
1:55 AM,12.0,9.3,89,29.74,5.0,Calm,Calm,-,N/A,,Overcast,0,2013-02-04 06:55:00
2:15 AM,12.0,9.3,89,29.74,3.0,Calm,Calm,-,N/A,Snow,Light Snow,0,2013-02-04 07:15:00
2:35 AM,12.0,9.3,89,29.74,1.5,Calm,Calm,-,N/A,Snow,Light Snow,0,2013-02-04 07:35:00
2:55 AM,12.2,9.5,89,29.74,1.8,West,3.5,-,N/A,Snow,Light Snow,280,2013-02-04 07:55:00
3:15 AM,12.6,9.7,88,29.74,2.0,West,3.5,-,N/A,Snow,Light Snow,280,2013-02-04 08:15:00
3:35 AM,13.1,10.2,88,29.75,2.0,Calm,Calm,-,N/A,Snow,Light Snow,0,2013-02-04 08:35:00
3:55 AM,12.2,9.3,88,29.75,3.0,Calm,Calm,-,N/A,Snow,Light Snow,0,2013-02-04 08:55:00
4:15 AM,12.0,9.1,88,29.76,5.0,West,3.5,-,N/A,Snow,Light Snow,270,2013-02-04 09:15:00
6:15 AM,12.0,8.6,86,29.78,10.0,Calm,Calm,-,N/A,Snow,Light Snow,0,2013-02-04 11:15:00
6:35 AM,12.0,8.6,86,29.78,10.0,Calm,Calm,-,N/A,,Overcast,0,2013-02-04 11:35:00
7:15 AM,12.0,8.6,86,29.79,10.0,Calm,Calm,-,N/A,,Overcast,0,2013-02-04 12:15:00
7:35 AM,12.0,8.2,85,29.79,10.0,Calm,Calm,-,N/A,,Mostly Cloudy,0,2013-02-04 12:35:00
8:15 AM,12.0,7.5,82,29.79,10.0,Calm,Calm,-,N/A,,Scattered Clouds,0,2013-02-04 13:15:00
9:15 AM,13.1,7.3,78,29.77,10.0,South,3.5,-,N/A,,Overcast,180,2013-02-04 14:15:00
9:35 AM,14.5,8.4,77,29.76,10.0,SSE,4.6,-,N/A,,Overcast,160,2013-02-04 14:35:00
9:55 AM,17.1,10.4,75,29.76,5.0,South,3.5,-,N/A,,Haze,190,2013-02-04 14:55:00
10:15 AM,17.1,9.7,73,29.76,7.0,South,6.9,-,N/A,Snow,Light Snow,180,2013-02-04 15:15:00
10:35 AM,17.6,9.1,69,29.75,10.0,SW,3.5,-,N/A,,Overcast,220,2013-02-04 15:35:00
10:55 AM,18.5,10.0,70,29.75,4.0,West,9.2,-,N/A,Snow,Light Snow,260,2013-02-04 15:55:00
11:15 AM,18.7,11.3,73,29.75,2.0,West,8.1,-,N/A,Snow,Light Snow,270,2013-02-04 16:15:00
11:35 AM,20.5,9.7,63,29.75,10.0,West,9.2,-,N/A,,Overcast,280,2013-02-04 16:35:00
12:15 PM,19.6,7.0,58,29.74,10.0,WSW,8.1,20.7,N/A,,Overcast,240,2013-02-04 17:15:00
12:35 PM,19.8,7.7,60,29.74,7.0,WNW,13.8,21.9,N/A,Snow,Light Snow,290,2013-02-04 17:35:00
12:55 PM,21.2,9.1,60,29.74,10.0,West,6.9,19.6,N/A,,Overcast,260,2013-02-04 17:55:00
1:15 PM,17.8,4.1,55,29.76,10.0,West,13.8,21.9,N/A,,Mostly Cloudy,270,2013-02-04 18:15:00
1:35 PM,18.3,4.8,56,29.76,10.0,West,8.1,21.9,N/A,,Overcast,270,2013-02-04 18:35:00
1:55 PM,17.8,3.9,55,29.76,10.0,West,10.4,17.3,N/A,,Mostly Cloudy,270,2013-02-04 18:55:00
2:15 PM,18.3,1.8,49,29.76,10.0,West,10.4,26.5,N/A,,Scattered Clouds,270,2013-02-04 19:15:00
2:35 PM,18.9,2.3,49,29.77,10.0,West,9.2,20.7,N/A,,Scattered Clouds,260,2013-02-04 19:35:00
2:55 PM,18.1,-3.3,39,29.78,10.0,West,16.1,24.2,N/A,,Scattered Clouds,270,2013-02-04 19:55:00
3:15 PM,17.2,-4.2,39,29.79,10.0,West,9.2,23.0,N/A,,Clear,280,2013-02-04 20:15:00
3:55 PM,16.0,-4.9,39,29.81,10.0,WNW,12.7,19.6,N/A,,Clear,300,2013-02-04 20:55:00
4:15 PM,14.5,-6.7,39,29.81,10.0,WNW,11.5,21.9,N/A,,Clear,300,2013-02-04 21:15:00
4:35 PM,13.8,-5.8,42,29.82,10.0,WNW,6.9,-,N/A,,Clear,290,2013-02-04 21:35:00
4:55 PM,12.0,-7.1,42,29.83,10.0,WNW,10.4,17.3,N/A,,Clear,300,2013-02-04 21:55:00
5:15 PM,12.0,-6.7,43,29.83,10.0,WNW,5.8,-,N/A,,Clear,290,2013-02-04 22:15:00
5:35 PM,9.5,-7.6,46,29.85,10.0,NW,3.5,-,N/A,,Clear,310,2013-02-04 22:35:00
5:55 PM,9.5,-6.9,48,29.86,10.0,WNW,3.5,-,N/A,,Clear,300,2013-02-04 22:55:00
6:15 PM,9.3,-7.8,46,29.87,10.0,Calm,Calm,-,N/A,,Clear,0,2013-02-04 23:15:00
6:35 PM,8.6,-8.7,45,29.87,10.0,WNW,4.6,-,N/A,,Clear,300,2013-02-04 23:35:00
6:55 PM,8.2,-8.9,46,29.88,10.0,NW,3.5,-,N/A,,Clear,310,2013-02-04 23:55:00
7:15 PM,7.2,-10.1,45,29.88,10.0,West,5.8,-,N/A,,Clear,280,2013-02-05 00:15:00
7:55 PM,6.8,-11.0,44,29.90,10.0,West,3.5,-,N/A,,Clear,260,2013-02-05 00:55:00
8:15 PM,6.8,-10.8,44,29.90,10.0,Calm,Calm,-,N/A,,Clear,0,2013-02-05 01:15:00
8:35 PM,5.5,-10.7,47,29.90,10.0,West,3.5,-,N/A,,Clear,280,2013-02-05 01:35:00
8:55 PM,6.8,-9.6,47,29.91,10.0,West,3.5,-,N/A,,Clear,270,2013-02-05 01:55:00
9:15 PM,6.8,-9.4,48,29.92,10.0,West,4.6,-,N/A,,Clear,260,2013-02-05 02:15:00
9:35 PM,6.8,-8.7,49,29.92,10.0,Calm,Calm,-,N/A,,Clear,0,2013-02-05 02:35:00
9:55 PM,4.5,-10.3,51,29.92,10.0,Calm,Calm,-,N/A,,Clear,0,2013-02-05 02:55:00
10:15 PM,4.5,-9.9,51,29.92,10.0,Calm,Calm,-,N/A,,Clear,0,2013-02-05 03:15:00
10:35 PM,4.5,-10.3,51,29.92,10.0,Calm,Calm,-,N/A,,Clear,0,2013-02-05 03:35:00
10:55 PM,4.5,-9.6,52,29.92,10.0,West,3.5,-,N/A,,Clear,270,2013-02-05 03:55:00
11:15 PM,4.5,-9.8,52,29.93,10.0,Calm,Calm,-,N/A,,Clear,0,2013-02-05 04:15:00
11:35 PM,4.5,-9.4,53,29.94,10.0,Calm,Calm,-,N/A,,Clear,0,2013-02-05 04:35:00
11:55 PM,3.0,-10.3,54,29.94,10.0,West,3.5,-,N/A,,Clear,260,2013-02-05 04:55:00